Location: Bonny Doon Airfield
(37.0704°N, 122.1252°W)
Time: 16:44:20
(UTC-07:00)

N. Korean satellite - Pass Details

Date: 14 October 2017
Orbit: 459 x 517 km, 97.2° (Epoch: 19 October)

Event Time Altitude Azimuth Distance (km) Brightness Sun altitude
Rises 19:30:23 0° 178° (S) 2,551 10.2 -12.3°
Reaches altitude 10° 19:32:30 10° 184° (S) 1,664 9.3 -12.7°
Maximum altitude 19:35:58 49° 260° (W) 625 7.6 -13.4°
Drops below altitude 10° 19:39:25 10° 337° (NNW) 1,646 9.5 -14.1°
Sets 19:41:30 0° 343° (NNW) 2,519 10.4 -14.5°
